This is the latest recevied weather packets stored in our database for station/object SA7AHC. If no packets are shown the sender has not sent any weather packets the latest 10 day(s).
| Time | Temp. | Humidity | Pressure | Rain* | Wind** | Luminosity | Snow |
|---|---|---|---|---|---|---|---|
| 1787938533 | 16.67° C | 79% | 1011.5 hPa | 0 mm | - | 9 W/m² | - |
| 1787937933 | 16.67° C | 79% | 1011.5 hPa | 0 mm | - | 16 W/m² | - |
| 1787937336 | 16.67° C | 78% | 1011.7 hPa | 0 mm | - | 21 W/m² | - |
| 1787936734 | 16.67° C | 78% | 1012.2 hPa | 0 mm | - | 25 W/m² | - |
| 1787936134 | 16.67° C | 77% | 1012.2 hPa | 0 mm | - | 30 W/m² | - |
| 1787935534 | 16.67° C | 77% | 1012.2 hPa | 0 mm | - | 35 W/m² | - |
| 1787934931 | 17.22° C | 77% | 1012.7 hPa | 0 mm | - | 47 W/m² | - |
| 1787934321 | 17.22° C | 76% | 1012.7 hPa | 0 mm | - | 54 W/m² | - |
| 1787933709 | 17.22° C | 75% | 1012.3 hPa | 0 mm | - | 51 W/m² | - |
| 1787933103 | 17.22° C | 74% | 1013.1 hPa | 0 mm | - | 72 W/m² | - |
| 1787932507 | 17.78° C | 74% | 1013.1 hPa | 0 mm | - | 77 W/m² | - |
| 1787931904 | 17.78° C | 73% | 1013.2 hPa | 0 mm | - | 83 W/m² | - |
| 1787931301 | 17.78° C | 72% | 1013.3 hPa | 0 mm | - | 98 W/m² | - |
| 1787930701 | 17.78° C | 70% | 1013.3 hPa | 0 mm | - | 93 W/m² | - |
| 1787930113 | 17.78° C | 71% | 1013.5 hPa | 0 mm | - | 148 W/m² | - |
| 1787929502 | 17.78° C | 71% | 1013.7 hPa | 0 mm | - | 121 W/m² | - |
| 1787928901 | 17.78° C | 70% | 1013.7 hPa | 0 mm | - | 49 W/m² | - |
| 1787928301 | 17.78° C | 69% | 1014.6 hPa | 0 mm | - | 18 W/m² | - |
| 1787927701 | 17.78° C | 68% | 1014.9 hPa | 0 mm | - | 16 W/m² | - |
| 1787927101 | 18.33° C | 68% | 1015 hPa | 0 mm | - | 37 W/m² | - |
| 1787926501 | 18.33° C | 67% | 1014.9 hPa | 0 mm | - | 60 W/m² | - |
| 1787925913 | 18.89° C | 65% | 1014.9 hPa | 0 mm | - | 79 W/m² | - |
| 1787925301 | 18.89° C | 62% | 1014.9 hPa | 0 mm | - | 88 W/m² | - |
| 1787924701 | 19.44° C | 60% | 1015.1 hPa | 0 mm | - | 109 W/m² | - |
| 1787924100 | 19.44° C | 59% | 1015.3 hPa | 0 mm | - | 167 W/m² | - |
* Rain latest hour (hover to see other rain measurements)
** Current wind speed in m/s (hover to see current wind gust speed)